Zurück zum Katalog

COSMOS 1375 DEB

AktivLEO
NORAD 17106·DEBRIS·🇷🇺 Russia

Gestartet Jun 6, 1982 von Plesetsk Cosmodrome

Loading…

Nächste Überflüge (nächste 24 Stunden)

TLE

AktuellSource: Space-Track

Epoche: Sep 14, 2026, 05:45 UTC

1 17106U 82055AH  26257.23959785  .00000174  00000-0  22148-3 0  9997
2 17106  65.8276 109.8162 0012810 126.0244 349.4315 13.86365978232641

Verfolge COSMOS 1375 DEB in Echtzeit mit AllMySat

Download on the App Store